NOZ3BD ENGM-ENBO

Flight info

Callsign NOZ3BD
Flight time 1h 16m
Altitude 35000
Route RIBBE DCT GIGNI DCT SOMUB DCT ODNOS
Aircraft B738/M-SDE2E3FGHIRWXY/LB1

Departure

Time 2026-05-05 14:47
Airport Oslo-Gardermoen International Airport (ENGM)

Arrival

Time 2026-05-05 16:03
Airport Bodø Airport (ENBO)
Time Latitude Longitude Altitude Speed Heading
2026-05-05 14:23 60.19591 11.09932 671 ft 0 kts 107°
2026-05-05 14:35 60.19592 11.09927 679 ft 2 kts 107°
2026-05-05 14:35 60.19597 11.09895 678 ft 2 kts 107°
2026-05-05 14:36 60.19602 11.09863 679 ft 2 kts 107°
2026-05-05 14:36 60.19605 11.09841 679 ft 1 kts 107°
2026-05-05 14:36 60.19606 11.09839 679 ft 0 kts 107°
2026-05-05 14:39 60.19608 11.09847 677 ft 1 kts 62°
2026-05-05 14:39 60.19615 11.09846 679 ft 1 kts
2026-05-05 14:39 60.19622 11.09831 679 ft 2 kts 301°
2026-05-05 14:40 60.19633 11.09746 680 ft 10 kts 285°
2026-05-05 14:40 60.19657 11.09577 679 ft 13 kts 285°
2026-05-05 14:40 60.19681 11.09404 677 ft 13 kts 286°
2026-05-05 14:40 60.19706 11.09234 681 ft 13 kts 286°
2026-05-05 14:41 60.19731 11.09060 679 ft 14 kts 286°
2026-05-05 14:41 60.19758 11.08867 675 ft 14 kts 285°
2026-05-05 14:41 60.19774 11.08741 676 ft 14 kts 278°
2026-05-05 14:41 60.19707 11.08635 677 ft 13 kts 196°
2026-05-05 14:42 60.19573 11.08559 675 ft 19 kts 195°
2026-05-05 14:42 60.19485 11.08507 680 ft 21 kts 196°
2026-05-05 14:42 60.19287 11.08393 679 ft 23 kts 196°
2026-05-05 14:42 60.19188 11.08337 678 ft 22 kts 195°
2026-05-05 14:43 60.19042 11.08252 677 ft 21 kts 195°
2026-05-05 14:43 60.18896 11.08168 670 ft 23 kts 196°
2026-05-05 14:43 60.18744 11.08079 668 ft 22 kts 197°
2026-05-05 14:43 60.18610 11.07998 666 ft 12 kts 197°
2026-05-05 14:44 60.18541 11.07938 663 ft 11 kts 238°
2026-05-05 14:44 60.18553 11.07782 663 ft 11 kts 288°
2026-05-05 14:44 60.18563 11.07708 664 ft 2 kts 285°
2026-05-05 14:44 60.18567 11.07678 664 ft 6 kts 285°
2026-05-05 14:45 60.18592 11.07538 663 ft 13 kts 304°
2026-05-05 14:45 60.18668 11.07473 664 ft 10 kts 11°
2026-05-05 14:45 60.18678 11.07478 664 ft 0 kts 15°
2026-05-05 14:46 60.18786 11.07540 665 ft 52 kts 16°
2026-05-05 14:46 60.19413 11.07899 669 ft 132 kts 16°
2026-05-05 14:46 60.20462 11.08517 1036 ft 167 kts 13°
2026-05-05 14:47 60.21599 11.09175 2137 ft 171 kts 11°
2026-05-05 14:47 60.22816 11.09829 3043 ft 188 kts 11°
2026-05-05 14:47 60.24107 11.10541 3794 ft 194 kts 11°
2026-05-05 14:47 60.25399 11.11230 4533 ft 195 kts
2026-05-05 14:48 60.26733 11.11408 5276 ft 190 kts 350°
2026-05-05 14:48 60.28046 11.11015 5884 ft 198 kts 347°
2026-05-05 14:48 60.29488 11.10499 6094 ft 222 kts 346°
2026-05-05 14:48 60.31089 11.09933 6307 ft 246 kts 347°
2026-05-05 14:49 60.32839 11.09352 6812 ft 260 kts 348°
2026-05-05 14:49 60.34662 11.09067 7662 ft 267 kts
2026-05-05 14:49 60.36443 11.10177 8559 ft 274 kts 19°
2026-05-05 14:49 60.38217 11.11706 9398 ft 280 kts 20°
2026-05-05 14:50 60.40024 11.13301 10172 ft 287 kts 20°
2026-05-05 14:50 60.41929 11.14977 10460 ft 311 kts 20°
2026-05-05 14:50 60.43984 11.16779 10874 ft 328 kts 20°
2026-05-05 14:50 60.46102 11.18646 11668 ft 332 kts 20°
2026-05-05 14:51 60.48221 11.20515 12538 ft 334 kts 20°
2026-05-05 14:51 60.50364 11.22402 13380 ft 337 kts 20°
2026-05-05 14:51 60.52498 11.24277 14127 ft 341 kts 19°
2026-05-05 14:51 60.54701 11.26210 14809 ft 347 kts 19°
2026-05-05 14:52 60.56948 11.28185 15489 ft 353 kts 19°
2026-05-05 14:52 60.59219 11.30184 16208 ft 357 kts 18°
2026-05-05 14:52 60.61515 11.32208 16928 ft 361 kts 18°
2026-05-05 14:52 60.63806 11.34231 17635 ft 366 kts 17°
2026-05-05 14:53 60.66162 11.36315 18331 ft 370 kts 17°
2026-05-05 14:53 60.68539 11.38419 18881 ft 375 kts 17°
2026-05-05 14:53 60.70955 11.40560 19387 ft 381 kts 17°
2026-05-05 14:53 60.73414 11.42742 19919 ft 387 kts 16°
2026-05-05 14:54 60.75947 11.44445 20421 ft 379 kts
2026-05-05 14:54 60.78570 11.44868 21011 ft 377 kts 354°
2026-05-05 14:54 60.81178 11.45112 21535 ft 382 kts 354°
2026-05-05 14:54 60.83860 11.45354 22048 ft 387 kts 354°
2026-05-05 14:55 60.86579 11.45625 22565 ft 392 kts 354°
2026-05-05 14:55 60.88393 11.45824 22919 ft 395 kts 354°
2026-05-05 14:55 60.90578 11.46078 23326 ft 399 kts 354°
2026-05-05 14:55 60.93330 11.46412 23744 ft 403 kts 354°
2026-05-05 14:56 60.96146 11.46765 24182 ft 405 kts 354°
2026-05-05 14:56 60.98975 11.47122 24615 ft 408 kts 354°
2026-05-05 14:56 61.01826 11.47481 25028 ft 412 kts 354°
2026-05-05 14:56 61.04698 11.47841 25425 ft 415 kts 354°
2026-05-05 14:57 61.07591 11.48200 25806 ft 418 kts 354°
2026-05-05 14:57 61.10503 11.48382 26197 ft 418 kts 352°
2026-05-05 14:57 61.13388 11.48382 26554 ft 421 kts 351°
2026-05-05 14:57 61.16326 11.48327 26932 ft 424 kts 351°
2026-05-05 14:58 61.19284 11.48277 27310 ft 427 kts 351°
2026-05-05 14:58 61.22271 11.48251 27661 ft 430 kts 352°
2026-05-05 14:58 61.25282 11.48246 27997 ft 434 kts 352°
2026-05-05 14:58 61.28321 11.48255 28343 ft 437 kts 352°
2026-05-05 14:59 61.31374 11.48270 28697 ft 440 kts 352°
2026-05-05 14:59 61.34450 11.48284 29042 ft 443 kts 352°
2026-05-05 14:59 61.37516 11.48296 29357 ft 446 kts 352°
2026-05-05 14:59 61.40641 11.48305 29671 ft 450 kts 353°
2026-05-05 15:00 61.43778 11.48312 29986 ft 452 kts 353°
2026-05-05 15:00 61.45864 11.48319 30194 ft 452 kts 353°
2026-05-05 15:00 61.50081 11.48336 30688 ft 451 kts 353°
2026-05-05 15:00 61.53217 11.48349 31009 ft 451 kts 353°
2026-05-05 15:01 61.56326 11.48359 31322 ft 452 kts 353°
2026-05-05 15:01 61.59476 11.48369 31654 ft 452 kts 353°
2026-05-05 15:01 61.62627 11.48379 31999 ft 452 kts 353°
2026-05-05 15:01 61.65778 11.48389 32320 ft 452 kts 354°
2026-05-05 15:02 61.68933 11.48399 32632 ft 453 kts 354°
2026-05-05 15:02 61.72089 11.48409 32954 ft 453 kts 354°
2026-05-05 15:02 61.75195 11.48419 33271 ft 452 kts 354°
2026-05-05 15:02 61.78353 11.48429 33560 ft 453 kts 354°
2026-05-05 15:03 61.80080 11.48435 33722 ft 453 kts 354°
2026-05-05 15:03 61.83019 11.48445 33937 ft 453 kts 354°
2026-05-05 15:03 61.86180 11.48454 34139 ft 454 kts 354°
2026-05-05 15:03 61.89340 11.48465 34429 ft 453 kts 354°
2026-05-05 15:04 61.92486 11.48476 34729 ft 452 kts 354°
2026-05-05 15:04 61.95634 11.48486 34853 ft 454 kts 354°
2026-05-05 15:04 62.01958 11.48755 34858 ft 460 kts 359°
2026-05-05 15:05 62.11456 11.50941 34864 ft 455 kts
2026-05-05 15:06 62.17746 11.52508 34871 ft 453 kts
2026-05-05 15:06 62.24019 11.53992 34879 ft 452 kts
2026-05-05 15:07 62.30252 11.55431 34866 ft 452 kts
2026-05-05 15:07 62.36519 11.56878 34849 ft 453 kts
2026-05-05 15:08 62.42796 11.58335 34834 ft 454 kts
2026-05-05 15:08 62.49096 11.59805 34820 ft 456 kts
2026-05-05 15:09 62.55372 11.61278 34817 ft 457 kts
2026-05-05 15:09 62.61714 11.62773 34819 ft 458 kts
2026-05-05 15:10 62.68061 11.64276 34829 ft 459 kts
2026-05-05 15:10 62.74380 11.65779 34843 ft 459 kts
2026-05-05 15:11 62.80724 11.67293 34863 ft 459 kts
2026-05-05 15:11 62.87099 11.68822 34868 ft 459 kts
2026-05-05 15:12 62.93415 11.70343 34884 ft 458 kts
2026-05-05 15:12 62.99754 11.71876 34886 ft 457 kts
2026-05-05 15:13 63.06077 11.73413 34884 ft 456 kts
2026-05-05 15:13 63.12390 11.74953 34891 ft 456 kts
2026-05-05 15:14 63.18651 11.76487 34885 ft 455 kts
2026-05-05 15:14 63.24941 11.78035 34882 ft 454 kts
2026-05-05 15:15 63.31222 11.79587 34879 ft 453 kts
2026-05-05 15:15 63.37469 11.81700 34879 ft 456 kts
2026-05-05 15:16 63.43576 11.85344 34873 ft 457 kts 12°
2026-05-05 15:16 63.49706 11.89245 34875 ft 457 kts 12°
2026-05-05 15:17 63.55821 11.93052 34872 ft 458 kts 12°
2026-05-05 15:17 63.61996 11.96826 34862 ft 458 kts 12°
2026-05-05 15:18 63.68163 12.00581 34867 ft 458 kts 12°
2026-05-05 15:18 63.74305 12.04336 34852 ft 459 kts 12°
2026-05-05 15:19 63.80491 12.08138 34871 ft 460 kts 12°
2026-05-05 15:19 63.86631 12.11932 34892 ft 460 kts 12°
2026-05-05 15:20 63.92824 12.15776 34907 ft 460 kts 12°
2026-05-05 15:20 63.99006 12.19631 34930 ft 460 kts 12°
2026-05-05 15:21 64.05148 12.23478 34932 ft 460 kts 12°
2026-05-05 15:21 64.11332 12.27370 34924 ft 460 kts 12°
2026-05-05 15:22 64.16466 12.30614 34916 ft 460 kts 12°
2026-05-05 15:22 64.22019 12.34138 34894 ft 459 kts 12°
2026-05-05 15:23 64.28129 12.38032 34861 ft 458 kts 12°
2026-05-05 15:23 64.34274 12.41965 34825 ft 458 kts 13°
2026-05-05 15:24 64.40412 12.45912 34817 ft 457 kts 13°
2026-05-05 15:24 64.46537 12.49870 34808 ft 457 kts 13°
2026-05-05 15:25 64.52658 12.53844 34813 ft 456 kts 13°
2026-05-05 15:25 64.58749 12.57816 34805 ft 456 kts 13°
2026-05-05 15:26 64.64877 12.61832 34800 ft 456 kts 13°
2026-05-05 15:26 64.70957 12.65834 34800 ft 456 kts 13°
2026-05-05 15:27 64.77078 12.69883 34790 ft 456 kts 13°
2026-05-05 15:27 64.83191 12.73945 34785 ft 456 kts 13°
2026-05-05 15:28 64.88249 12.77322 34771 ft 448 kts 13°
2026-05-05 15:28 64.95178 12.81973 34779 ft 442 kts 13°
2026-05-05 15:29 65.01098 12.85960 34415 ft 438 kts 13°
2026-05-05 15:29 65.04016 12.87935 34069 ft 434 kts 13°
2026-05-05 15:29 65.06907 12.89895 33701 ft 431 kts 13°
2026-05-05 15:29 65.09786 12.91850 33287 ft 428 kts 13°
2026-05-05 15:30 65.12635 12.93791 32926 ft 423 kts 13°
2026-05-05 15:30 65.15417 12.95689 32578 ft 419 kts 13°
2026-05-05 15:30 65.18208 12.97598 32212 ft 415 kts 13°
2026-05-05 15:30 65.20978 12.99496 31863 ft 411 kts 13°
2026-05-05 15:31 65.23721 13.01381 31511 ft 408 kts 13°
2026-05-05 15:31 65.25523 13.02620 31282 ft 406 kts 13°
2026-05-05 15:31 65.29106 13.05091 30814 ft 401 kts 13°
2026-05-05 15:31 65.30914 13.06340 30600 ft 399 kts 13°
2026-05-05 15:32 65.33574 13.08180 30247 ft 397 kts 13°
2026-05-05 15:32 65.36217 13.10013 29913 ft 394 kts 13°
2026-05-05 15:32 65.38840 13.11835 29526 ft 391 kts 13°
2026-05-05 15:32 65.41440 13.13645 29188 ft 386 kts 13°
2026-05-05 15:33 65.43972 13.15413 28831 ft 381 kts 13°
2026-05-05 15:33 65.46510 13.17189 28490 ft 376 kts 13°
2026-05-05 15:33 65.49012 13.18943 28167 ft 371 kts 13°
2026-05-05 15:33 65.51473 13.20670 27837 ft 366 kts 13°
2026-05-05 15:34 65.53912 13.22386 27519 ft 362 kts 13°
2026-05-05 15:34 65.56281 13.24057 27200 ft 357 kts 14°
2026-05-05 15:34 65.58659 13.25736 26882 ft 353 kts 14°
2026-05-05 15:34 65.61008 13.27397 26574 ft 349 kts 14°
2026-05-05 15:35 65.63323 13.29035 26268 ft 345 kts 14°
2026-05-05 15:35 65.65617 13.30663 25963 ft 341 kts 14°
2026-05-05 15:35 65.67887 13.32276 25663 ft 338 kts 14°
2026-05-05 15:35 65.70133 13.33879 25363 ft 335 kts 14°
2026-05-05 15:36 65.72364 13.35472 25062 ft 332 kts 14°
2026-05-05 15:36 65.74549 13.37036 24765 ft 329 kts 15°
2026-05-05 15:36 65.76738 13.38604 24472 ft 326 kts 15°
2026-05-05 15:36 65.78902 13.40158 24177 ft 323 kts 15°
2026-05-05 15:37 65.81052 13.41704 23889 ft 320 kts 15°
2026-05-05 15:37 65.83183 13.43239 23592 ft 318 kts 15°
2026-05-05 15:37 65.85304 13.44769 23290 ft 315 kts 15°
2026-05-05 15:37 65.87374 13.46266 22969 ft 312 kts 15°
2026-05-05 15:38 65.89440 13.47762 22688 ft 308 kts 15°
2026-05-05 15:38 65.91508 13.49262 22415 ft 315 kts 15°
2026-05-05 15:38 65.93701 13.50851 22122 ft 342 kts 15°
2026-05-05 15:38 65.96041 13.52548 21763 ft 366 kts 15°
2026-05-05 15:39 65.98509 13.54347 21401 ft 371 kts 15°
2026-05-05 15:39 66.00968 13.56147 21057 ft 364 kts 15°
2026-05-05 15:39 66.03387 13.57922 20713 ft 359 kts 15°
2026-05-05 15:39 66.05768 13.59672 20370 ft 354 kts 15°
2026-05-05 15:40 66.08117 13.61400 20060 ft 351 kts 15°
2026-05-05 15:40 66.10428 13.62984 19730 ft 346 kts
2026-05-05 15:40 66.12820 13.63556 19316 ft 344 kts
2026-05-05 15:40 66.15213 13.63669 18610 ft 348 kts 359°
2026-05-05 15:41 66.17645 13.63736 17857 ft 354 kts 359°
2026-05-05 15:41 66.20098 13.63805 17578 ft 345 kts 359°
2026-05-05 15:41 66.22481 13.63886 17251 ft 338 kts 359°
2026-05-05 15:41 66.24809 13.63979 16908 ft 332 kts 359°
2026-05-05 15:42 66.27110 13.64079 16581 ft 326 kts 360°
2026-05-05 15:42 66.29366 13.64184 16263 ft 322 kts 360°
2026-05-05 15:42 66.31594 13.64291 15941 ft 317 kts 360°
2026-05-05 15:42 66.33784 13.64400 15634 ft 313 kts
2026-05-05 15:43 66.35923 13.64507 15321 ft 309 kts 360°
2026-05-05 15:43 66.38068 13.64613 15007 ft 308 kts
2026-05-05 15:43 66.40226 13.64721 14711 ft 315 kts
2026-05-05 15:43 66.42459 13.64832 14401 ft 331 kts
2026-05-05 15:44 66.44777 13.64949 14052 ft 335 kts
2026-05-05 15:44 66.47109 13.65069 13702 ft 334 kts
2026-05-05 15:44 66.49430 13.65188 13349 ft 333 kts
2026-05-05 15:44 66.51745 13.65308 13008 ft 331 kts
2026-05-05 15:45 66.54040 13.65427 12685 ft 329 kts
2026-05-05 15:45 66.56324 13.65546 12351 ft 327 kts
2026-05-05 15:45 66.58598 13.65665 12021 ft 326 kts
2026-05-05 15:45 66.60861 13.65783 11695 ft 325 kts
2026-05-05 15:46 66.63120 13.65900 11361 ft 324 kts
2026-05-05 15:46 66.65359 13.66017 11037 ft 319 kts
2026-05-05 15:46 66.67570 13.66132 10717 ft 315 kts
2026-05-05 15:46 66.69721 13.66247 10404 ft 311 kts
2026-05-05 15:47 66.71873 13.66360 10088 ft 307 kts
2026-05-05 15:47 66.73290 13.66433 9882 ft 305 kts
2026-05-05 15:47 66.76105 13.66580 9611 ft 296 kts
2026-05-05 15:47 66.78128 13.66686 9320 ft 291 kts
2026-05-05 15:48 66.80150 13.66793 8941 ft 292 kts
2026-05-05 15:48 66.82181 13.66901 8574 ft 291 kts
2026-05-05 15:48 66.84198 13.67008 8313 ft 287 kts
2026-05-05 15:48 66.86180 13.67113 8039 ft 284 kts
2026-05-05 15:49 66.88153 13.67218 7765 ft 281 kts
2026-05-05 15:49 66.90077 13.67319 7516 ft 279 kts
2026-05-05 15:49 66.92023 13.67422 7248 ft 278 kts 360°
2026-05-05 15:49 66.93957 13.67526 6979 ft 277 kts 359°
2026-05-05 15:50 66.95875 13.67627 6720 ft 275 kts 360°
2026-05-05 15:50 66.97791 13.67731 6451 ft 273 kts 359°
2026-05-05 15:50 66.99688 13.67833 6204 ft 272 kts 359°
2026-05-05 15:50 67.01555 13.68062 6024 ft 267 kts
2026-05-05 15:51 67.03240 13.69837 5799 ft 265 kts 29°
2026-05-05 15:51 67.04836 13.72196 5502 ft 264 kts 30°
2026-05-05 15:51 67.06420 13.74556 5219 ft 263 kts 30°
2026-05-05 15:51 67.08003 13.76905 4951 ft 263 kts 29°
2026-05-05 15:52 67.09577 13.79228 4838 ft 258 kts 29°
2026-05-05 15:52 67.11109 13.81489 4730 ft 256 kts 29°
2026-05-05 15:52 67.12635 13.83740 4610 ft 249 kts 29°
2026-05-05 15:52 67.14114 13.85923 4500 ft 242 kts 29°
2026-05-05 15:53 67.15567 13.88071 4236 ft 242 kts 29°
2026-05-05 15:53 67.17031 13.90236 3955 ft 243 kts 29°
2026-05-05 15:53 67.18505 13.92417 3642 ft 245 kts 30°
2026-05-05 15:53 67.19979 13.94594 5488 ft 244 kts 29°
2026-05-05 15:54 67.21528 13.96897 4395 ft 271 kts 29°
2026-05-05 15:54 67.23192 13.99411 3365 ft 289 kts 33°
2026-05-05 15:54 67.24531 14.03359 2437 ft 298 kts 70°
2026-05-05 15:54 67.24907 14.08430 1964 ft 278 kts 88°
2026-05-05 15:55 67.25079 14.13199 1621 ft 256 kts 85°
2026-05-05 15:55 67.25357 14.17591 1260 ft 238 kts 78°
2026-05-05 15:55 67.25696 14.21552 952 ft 217 kts 82°
2026-05-05 15:55 67.25983 14.25187 677 ft 198 kts 80°
2026-05-05 15:56 67.26254 14.28553 1232 ft 196 kts 81°
2026-05-05 15:56 67.26538 14.32260 1778 ft 214 kts 82°
2026-05-05 15:56 67.26780 14.35956 1758 ft 203 kts 88°
2026-05-05 15:56 67.26667 14.39358 1772 ft 181 kts 103°
2026-05-05 15:57 67.26420 14.42941 2339 ft 215 kts 103°
2026-05-05 15:57 67.26115 14.46796 2483 ft 215 kts 115°
2026-05-05 15:57 67.25256 14.49715 2490 ft 200 kts 152°
2026-05-05 15:57 67.23983 14.50467 2476 ft 190 kts 196°
2026-05-05 15:58 67.22941 14.48633 2489 ft 186 kts 240°
2026-05-05 15:58 67.22552 14.45398 2492 ft 198 kts 255°
2026-05-05 15:58 67.22245 14.41783 2240 ft 212 kts 255°
2026-05-05 15:58 67.21931 14.38080 1944 ft 209 kts 256°
2026-05-05 15:59 67.21629 14.34509 1613 ft 197 kts 256°
2026-05-05 15:59 67.21351 14.31195 1506 ft 178 kts 255°
2026-05-05 15:59 67.21115 14.28266 1477 ft 155 kts 256°
2026-05-05 15:59 67.20921 14.25760 1504 ft 129 kts 255°
2026-05-05 16:00 67.20844 14.23423 1367 ft 140 kts 271°
2026-05-05 16:00 67.21200 14.21041 1209 ft 145 kts 297°
2026-05-05 16:00 67.22014 14.19439 1035 ft 148 kts 332°
2026-05-05 16:00 67.23054 14.19086 987 ft 158 kts
2026-05-05 16:01 67.24129 14.19833 993 ft 164 kts 18°
2026-05-05 16:01 67.25053 14.21435 963 ft 163 kts 46°
2026-05-05 16:01 67.25741 14.23721 850 ft 159 kts 63°
2026-05-05 16:01 67.26058 14.26401 668 ft 154 kts 81°
2026-05-05 16:02 67.26303 14.29067 405 ft 152 kts 82°
2026-05-05 16:02 67.26524 14.31696 200 ft 146 kts 83°
2026-05-05 16:02 67.26736 14.34272 38 ft 142 kts 79°
2026-05-05 16:02 67.26915 14.36482 37 ft 98 kts 77°
2026-05-05 16:03 67.26997 14.37445 47 ft 40 kts 77°
2026-05-05 16:03 67.27048 14.38063 51 ft 29 kts 78°
2026-05-05 16:03 67.27082 14.38327 52 ft 10 kts 53°
2026-05-05 16:03 67.27145 14.38340 52 ft 10 kts 319°
2026-05-05 16:04 67.27159 14.38140 52 ft 14 kts 271°
2026-05-05 16:04 67.27157 14.37880 53 ft 15 kts 265°
2026-05-05 16:04 67.27138 14.37617 52 ft 15 kts 257°
2026-05-05 16:04 67.27115 14.37357 53 ft 14 kts 257°
2026-05-05 16:05 67.27131 14.37208 51 ft 9 kts 323°
2026-05-05 16:05 67.27161 14.37083 44 ft 6 kts 293°
2026-05-05 16:05 67.27172 14.37017 45 ft 5 kts 294°
2026-05-05 16:05 67.27186 14.36939 46 ft 5 kts 293°
2026-05-05 16:06 67.27188 14.36924 46 ft 0 kts 293°